Location: Bergnerzell
(49.1816°N, 10.2565°E)
Time: 02:18:43
(UTC+00:00)

EXPRESS MD2 - Pass Details

Date: 23 May 2024
Orbit: 261 x 3331 km, 49.9° (Epoch: 19 June)

Event Time Altitude Azimuth Distance (km) Brightness Sun altitude
Exits shadow 01:27:30 28° 183° (S) 754 3.5 -14.3°
Maximum altitude 01:28:21 35° 146° (SE) 700 3.6 -14.2°
Drops below altitude 10° 01:32:10 10° 79° (E) 1,978 6.8 -13.9°
Sets 01:35:25 0° 72° (ENE) 3,362 8.2 -13.6°
